Location: doobydoo
(53.3403°N, 2.6908°W)
Time: 18:40:38
(UTC+00:00)

ISS - Pass Details

Date: 25 November 2021
Orbit: 413 x 422 km, 51.6° (Epoch: 18 January)

Event Time Altitude Azimuth Distance (km) Brightness Sun altitude
Rises 17:26:56 0° 233° (SW) 2,378 1.6 -12.2°
Reaches altitude 10° 17:29:08 10° 224° (SW) 1,513 0.1 -12.5°
Maximum altitude 17:32:16 35° 157° (SSE) 704 -2.7 -12.9°
Enters shadow 17:34:03 20° 103° (ESE) 1,036 -2.3 -13.2°
